Location: Garshuizen
(53.3675°N, 6.7248°E)
Time: 08:16:44
(UTC+00:00)

Alouette 2 Rocket - Pass Details

Date: 15 May 2026
Orbit: 501 x 2614 km, 79.8° (Epoch: 6 June)

Event Time Altitude Azimuth Distance (km) Brightness Sun altitude
Rises 23:20:28 0° 345° (NNW) 2,625 8.4 -17.6°
Reaches altitude 10° 23:22:24 10° 348° (NNW) 1,782 7.2 -17.6°
Maximum altitude 23:26:07 71° 73° (ENE) 643 3.6 -17.6°
Enters shadow 23:28:15 30° 152° (SSE) 1,194 4.5 -17.6°
